Aérodrome :
LOGIN :

S'inscrire | Disclaimer

   EN    FR    IT 

 










Légende :    VFR   VFR Marginal   IFR   IFR Intensif   IFR Très Intensif
Visi : 
Plafond : 
>= 8 km
>= 3000ft
5 à 8 km
1000 à 3000 ft
1500m à 5 km
500 à 1000 ft
800 à 1500m
200 à 500 ft
< 800m
< 200 ft
Symboles :   Orages  Brouillard  Fortes neiges  Fortes précipitations  Vent > 20 kt
SIGMETs :   Divers  Orages  Givrage  Turbulence  Onde Orograph.  Cendres Volcan.







- Altitude de l'aérodrome : 23 ft
- Code IATA : XFW


EDHI - Hamburg Finkenwerder

DERNIER METAR :
  • 231120Z 30016G27KT 270V330 8000 SHRA SCT018TCU OVC024 13/11 Q1021

METARs EXPIRÉS :
  • 231050Z 31018KT 9999 SCT026 BKN035 14/09 Q1021
  • 231020Z 30016KT 9999 SCT030 BKN034 15/09 Q1021
  • 230950Z 30017KT 270V330 9999 BKN028 BKN038 15/09 Q1021
  • 230920Z 31014G24KT 270V330 9999 FEW026 BKN033 14/09 Q1020
  • 230850Z 30014KT 270V330 9999 SCT024 BKN034 14/10 Q1020

TAF TAF EDHI
Valide du 23 à 12h jusqu'au 23 à 21h UTC


231100Z 2312/2321 29015KT 9999 SCT025
TEMPO 2312/2317 31020G30KT
BECMG 2315/2318 BKN012
BECMG 2317/2319 28008KT
Pas de NOTAMs connus pour ce terrain.



MET'MAP, la Météo Aéronautique d'un coup d'oeil ! - Copyright ORBIFLY Décembre 2007 - Disclaimer

ORBIFLY MET'MAP TEAM :

Programmation & Développement : Alexandra Zaïnal
Conception & Développement : Baudouin d'Aumeries
Co-Programmation & Développement : Marc-Olivier Méhu
Soutien technique & logistique : Manuel Goepfert

Contact : metmap@orbifly.com




SOURCES & CREDITS :

   NOAA